Volver al catálogo

STARLINK-34131

ActivoComunicacionesVLEO
NORAD 64182·PAYLOAD·🇺🇸 United States

Lanzado May 28, 2025 desde Cape Canaveral Space Force Station

Loading…

Próximos Pases (próximas 24 horas)

TLE

ActualizadoSource: CelesTrak SupGP

Época: Sep 14, 2026, 14:44 UTC

1 64182C 25113N   26257.61437500  .00026862  00000+0  79406-3 0  2570
2 64182  53.1580 293.0548 0001194  72.8841  81.5817 15.34360277    10

Sigue STARLINK-34131 en tiempo real con AllMySat

Download on the App Store